Tracking 19903 objects as of 16-Oct-2019
HD Live streaming from Space Station
objects crossing your sky now

FLOCK 2K 11

Track FLOCK 2K 11 now!
10-day predictions
FLOCK 2K 11 is classified as:


NORAD ID: 42894
Int'l Code: 2017-042BX
Perigee: 445.5 km
Apogee: 462.7 km
Inclination: 96.9 °
Period: 93.5 minutes
Semi major axis: 6825 km
RCS: Unknown
Launch date: July 14, 2017
Source: United States (US)
Launch site: TYURATAM MISSILE AND SPACE COMPLEX (TTMTR)
aabbcc
Your satellite tracking list
Your tracking list is empty




NASA's NSSDC Master Catalog

Two Line Element Set (TLE):
1 42894U 17042BX  19288.72752620  .00002352  00000-0  61320-4 0  9998
2 42894  96.9222 165.1899 0012590 126.9584 233.2818 15.39705671126280
Source of the keplerian elements: AFSPC